Location: Wildcat Hills Observatory
(41.6350°N, 103.6812°W)
Time: 11:41:26
(UTC-06:00)

Daily predictions for brighter satellites

Satellite Brightness Start Highest point End
(mag) Time Altitude Azimuth Time Altitude Azimuth Time Altitude Azimuth
ERS-1 Rocket 4.0 20:42:35 10° SE 20:46:54 30° ENE 20:51:14 10° N
Cosmos 1346 4.2 20:44:58 10° SSE 20:47:12 22° E 20:49:27 10° NE
Cosmos 292 Rocket 4.0 20:43:48 10° SSW 20:48:38 80° WNW 20:53:29 10° NNE
Meteor 2-4 Rocket 4.5 20:46:17 10° SSE 20:51:16 34° E 20:56:24 10° NNE
Aureole 1 Rocket 3.5 20:51:14 10° SSE 20:53:56 22° ESE 20:56:24 10° NE
SAR-Lupe-4 3.6 20:51:54 10° SSE 20:55:26 65° ENE 20:58:59 10° N
YAOGAN 6 3.2 20:53:43 10° SE 20:56:57 37° ENE 21:00:13 10° N
NOSS 2-2 (D) 3.4 20:54:35 10° SSW 20:58:33 74° ESE 21:03:04 10° NE
Cosmos 1818 3.8 20:54:01 10° SW 20:59:27 79° WNW 21:04:56 10° NNE
CENTAUR R/B 3.2 20:53:33 10° NW 21:01:30 84° NE 21:09:58 10° SE
Cosmos 773 Rocket 4.2 20:56:59 10° SSW 21:02:08 77° WNW 21:07:18 10° NNE
Cosmos 2112 Rocket 4.3 20:59:50 10° S 21:04:46 45° ESE 21:09:43 10° NNE
Cosmos 1656 Rocket 3.6 20:59:32 10° NNW 21:05:01 82° ENE 21:10:32 10° SSE
H-2A R/B 3.8 21:02:58 10° E 21:05:59 16° ENE 21:09:02 10° NNE
Lacrosse 5 rocket 4.5 21:05:56 10° NW 21:08:06 13° N 21:10:19 10° NNE
Okean 1-7 Rocket 4.3 21:07:40 10° SSE 21:11:41 34° E 21:15:46 10° NNE
SAR-Lupe-1 4.1 21:08:37 10° SSE 21:12:12 89° W 21:15:49 10° NNW
Spot 1 4.4 21:08:18 10° S 21:12:51 70° WSW 21:17:10 10° NNW
USA 81 4.2 21:08:19 10° S 21:13:37 81° W 21:18:56 10° N
SPOT 5 3.9 21:11:37 12° ESE 21:14:46 25° ENE 21:18:20 10° NNE
Cosmos 405 Rocket 2.6 21:11:18 10° S 21:15:03 84° E 21:18:53 10° N
USA 186 4.1 21:13:30 10° SSW 21:16:08 23° W 21:18:44 10° NW
Meteor 1-19 Rocket 4.3 21:10:52 10° S 21:16:41 79° E 21:22:26 10° NNE
SL-27 R/B 2.9 21:13:13 10° S 21:16:41 42° ESE 21:20:10 10° NNE
NOSS 2-2 (C) 3.8 21:13:20 10° SW 21:17:21 72° NW 21:21:57 10° NNE
Tiangong 2 1.4 21:15:34 10° SW 21:18:35 42° SSE 21:21:37 10° E
DNEPR-1 R/B 3.6 21:17:32 10° NNW 21:21:48 72° ENE 21:25:28 16° SE
Helios 1A 3.9 21:17:44 10° S 21:21:50 49° W 21:25:56 10° NNW
Cosmos 1943 Rocket 3.8 21:18:16 10° NW 21:23:06 31° WSW 21:27:53 10° SSW
Meteor 1-23 Rocket 4.5 21:17:53 10° SSE 21:23:13 48° E 21:28:34 10° NNE
Terra 4.0 21:21:28 10° E 21:23:14 12° ENE 21:25:01 10° NE
Cosmos 1441 Rocket 3.2 21:22:44 10° S 21:26:24 57° E 21:30:05 10° NNE
Meteor 2-13 Rocket 4.4 21:20:38 10° N 21:26:44 88° E 21:32:48 10° S
Cosmos 1680 Rocket 3.5 21:22:43 10° SSW 21:27:57 86° ESE 21:33:11 10° NNE
Cosmos 2056 Rocket 4.4 21:26:19 10° N 21:31:03 35° ENE 21:34:24 17° ESE
Cosmos 1606 Rocket 4.4 21:29:44 10° NNE 21:33:39 33° ENE 21:35:59 19° SE
ASTEX 1 3.3 21:29:08 10° S 21:34:02 82° E 21:38:57 10° N
Meteor 1-15 Rocket 4.5 21:29:41 10° N 21:35:09 52° ENE 21:39:12 18° SSE
CRYOSAT 2 4.3 21:31:04 11° SSE 21:35:44 77° E 21:40:36 10° N
Cosmos 405 3.0 21:33:41 10° N 21:37:15 64° ENE 21:39:26 21° SSE
USA 245 3.5 21:37:19 23° E 21:37:55 26° ENE 21:40:01 10° NNE
MOS 1-B Rocket 4.1 21:33:12 15° SSE 21:37:58 66° ENE 21:44:18 10° N
ISS -3.9 21:35:40 10° SW 21:38:56 66° SE 21:42:13 10° ENE
Envisat 4.3 21:34:35 10° SSW 21:39:16 38° W 21:43:59 10° NNW
NOAA 11 4.2 21:34:52 15° SSE 21:39:27 73° ENE 21:44:53 10° N
ARGOS 3.4 21:36:13 17° SE 21:40:11 53° ENE 21:45:27 10° N
Cosmos 1238 Rocket 4.1 21:34:11 10° S 21:40:54 80° E 21:47:29 10° N
Cosmos 2074 Rocket 4.3 21:36:51 10° NNW 21:43:02 67° W 21:49:14 10° S
Aureole 3 Rocket 4.1 21:37:16 10° SSW 21:43:51 66° W 21:48:31 10° N
Cosmos 2184 Rocket 4.3 21:37:48 10° NNW 21:44:07 69° W 21:50:20 10° S
Cosmos 1726 Rocket 4.3 21:40:13 10° N 21:44:12 35° ENE 21:46:13 23° SE
YAOGAN 11 4.2 21:42:17 21° SSE 21:45:02 60° ENE 21:49:18 10° N
Cosmos 1610 Rocket 4.5 21:40:57 10° N 21:47:16 89° E 21:52:47 14° S
COSMOS 2406 3.8 21:41:48 10° SW 21:47:28 61° WNW 21:53:08 10° NNE
COSMOS 2487 4.2 21:48:52 18° E 21:48:52 18° E 21:50:58 10° NE
Cosmos 1743 4.5 21:47:22 10° NNW 21:50:49 31° W 21:54:16 10° SSW
Cosmos 1025 Rocket 2.9 21:47:59 12° S 21:51:58 86° E 21:56:16 10° N
OAO 2 Rocket 3.8 21:47:32 10° WSW 21:52:08 39° S 21:54:25 25° SE
Cosmos 2058 Rocket 4.0 21:49:31 10° N 21:53:32 33° ENE 21:55:15 25° ESE
Cosmos 2278 4.5 21:48:53 10° N 21:54:14 40° ENE 21:57:30 21° ESE
Cosmos 2082 Rocket 3.2 21:54:38 22° SE 21:56:08 25° ESE 22:00:40 10° NE
SPOT 1/Viking Rocket 3.8 21:53:50 23° SE 21:56:49 53° ENE 22:01:50 10° N
SL-24 DEB 4.4 21:59:12 27° SSE 22:01:35 58° E 22:06:08 10° N
MetOp-B 4.2 22:00:20 19° S 22:04:18 75° WSW 22:09:41 10° NNW
Cosmos 1371 Rocket 4.0 22:05:13 10° NNW 22:10:34 81° WSW 22:13:32 27° SSE
Cosmos 962 Rocket 4.4 22:05:26 10° N 22:11:43 79° E 22:15:32 25° SSE
Cosmos 2369 4.0 22:07:43 10° NNW 22:13:23 55° ENE 22:16:08 29° SE
Cosmos 1437 Rocket 2.8 22:11:25 10° NNW 22:15:15 73° W 22:16:48 34° S
Nimbus 7 Rocket 4.4 22:11:16 10° NNE 22:17:22 78° ESE 22:22:12 17° S
Cosmos 1697 Rocket 3.8 22:14:47 10° N 22:19:49 32° ENE 22:22:23 22° E
H-2A R/B 3.0 22:18:44 30° ESE 22:20:05 37° ENE 22:24:16 10° N
PSLV R/B 3.5 22:18:36 10° W 22:21:20 48° SW 22:21:20 48° SW
OE (NEXTSAT) 4.5 22:18:15 10° WNW 22:21:50 73° NNE 22:22:43 47° E
Iridium 82 4.5 22:21:45 10° N 22:25:17 68° E 22:25:49 57° SE
ERS-1 Rocket 4.4 22:21:28 12° SSW 22:25:35 32° W 22:30:05 10° NNW
SL-08 RB Rocket 3.8 22:24:47 31° S 22:26:49 67° W 22:31:17 10° NNW
NOSS 8 (F) 4.3 22:26:38 60° SSE 22:27:02 68° ESE 22:30:36 10° NE
Cosmos 2154 Rocket 4.5 22:21:40 10° NNW 22:27:53 58° W 22:32:35 18° SSW
SL-8 Rocket 4.0 22:23:42 10° N 22:29:57 67° E 22:32:50 33° SSE
Okean 2 4.5 22:27:33 15° SW 22:30:41 42° WNW 22:34:36 10° N
Cosmos 1626 Rocket 4.2 22:30:45 36° E 22:30:59 36° E 22:34:56 10° NNE
Cosmos 2366 rocket 4.2 22:28:32 10° N 22:34:35 53° ENE 22:36:53 35° SE
USA 267 3.9 22:30:08 10° ENE 22:35:51 31° SE 22:36:00 31° SE
Cosmos 1656 3.8 22:30:28 10° NNW 22:35:51 59° ENE 22:37:48 38° SE
Cosmos 1833 Rocket 2.8 22:35:45 38° SSE 22:37:29 51° ESE 22:42:55 10° NNE
Meteor 1-4 Rocket 2.9 22:35:56 10° N 22:39:20 47° ENE 22:39:20 47° ENE
IGS 5A 3.6 22:40:22 51° ESE 22:40:59 58° ENE 22:45:05 10° N
H-2A R/B 2.2 22:42:53 35° SSW 22:44:51 62° W 22:49:51 10° NNW
Landsat 7 3.8 22:43:46 45° S 22:45:14 81° WSW 22:50:02 10° NNW
Cosmos 1066 Rocket 4.1 22:43:25 38° S 22:45:34 77° E 22:51:12 10° NNE
Lacrosse 5 rocket 4.4 22:46:54 10° NNW 22:49:10 13° NNE 22:51:26 10° NE
Cosmos 1766 4.0 22:48:35 10° N 22:52:04 38° ENE 22:52:04 38° ENE
SPOT 5 4.2 22:50:51 20° SW 22:52:46 28° W 22:56:31 10° NW
Tiangong 2 2.4 22:52:06 10° W 22:54:07 35° W 22:54:07 35° W
Cosmos 2228 3.4 22:51:45 10° NNW 22:55:59 58° W 22:56:54 46° SW
Timation 2 Rocket 4.2 22:56:34 43° SSE 22:58:01 50° ESE 23:03:58 10° NE
DMSP B5D2-2 4.2 22:53:29 10° N 22:58:47 75° WNW 23:01:11 33° SSW
Cosmos 1959 Rocket 4.5 22:53:50 10° N 23:00:14 86° W 23:02:41 41° S
Terra 1.8 22:59:17 56° S 23:00:18 82° WSW 23:05:05 10° NNW
Cosmos 921 Rocket 3.8 22:56:38 10° NNW 23:00:54 44° W 23:01:49 39° SW
USA 229 DEB 4.5 22:55:26 10° NNW 23:02:18 47° NE 23:06:04 26° ESE
USA 229 4.5 22:55:32 10° NNW 23:02:23 47° NE 23:06:11 26° ESE
SL-08 R/B 4.4 22:58:00 10° N 23:04:08 89° E 23:06:10 45° S
Cosmos 1602 Rocket 3.3 23:04:34 76° SSE 23:04:53 84° E 23:09:14 10° N
DELTA 2 DEB (DPAF) 4.4 23:05:30 50° E 23:05:51 52° ENE 23:10:13 10° N
Cosmos 1980 Rocket 2.8 23:01:50 10° NNW 23:07:17 46° ENE 23:08:49 37° E
SL-19 R/B 4.0 23:02:22 10° NNE 23:07:46 87° WNW 23:09:24 46° SSW
deb Chang Zheng 4 3.5 23:04:01 10° NNE 23:08:21 83° WNW 23:08:51 68° SSW
Spot 4 3.8 23:11:21 62° ESE 23:11:55 69° ENE 23:16:42 10° N
Cosmos 2218 Rocket 4.1 23:06:12 10° NNW 23:12:20 69° W 23:14:34 40° SSW
Cosmos 158 Rocket 4.2 23:12:50 52° ESE 23:13:02 53° ESE 23:18:15 10° NNE
ISS -1.3 23:12:57 10° WNW 23:15:41 23° NNW 23:18:24 10° NE
Cosmos 2322 Rocket 4.0 23:11:47 10° N 23:16:09 22° NE 23:18:37 17° E
CZ-4B R/B 3.4 23:12:27 10° NNE 23:17:32 78° ESE 23:18:17 64° SSE
Cosmos 1269 Rocket 3.9 23:20:05 62° SE 23:20:26 64° ESE 23:25:42 10° NNE
Cosmos 1544 4.1 23:19:43 10° N 23:22:22 40° NNE 23:22:22 40° NNE
COSMOS 2487 4.4 23:22:41 22° W 23:23:42 26° WNW 23:26:45 10° N
SME Rocket 4.2 23:24:15 40° E 23:25:01 43° ENE 23:29:07 10° N
Cosmos 1805 4.0 23:23:18 10° N 23:26:26 46° NE 23:26:26 46° NE
Meteor 1-22 Rocket 4.3 23:26:09 10° NNW 23:31:21 59° W 23:32:21 50° SW
Cosmos 1420 Rocket 3.9 23:28:12 10° NNW 23:33:27 71° WSW 23:33:59 65° SSW
CZ-4C R/B 4.0 23:34:25 47° NNW 23:34:25 47° NNW 23:37:03 10° NNW
Cosmos 1048 Rocket 3.8 23:36:47 72° SSW 23:37:19 87° WNW 23:42:31 10° NNE
Cosmos 2082 Rocket 3.0 23:36:24 21° SW 23:39:54 47° WNW 23:45:22 10° NNE
Nadezhda 3 Rocket 3.9 23:39:48 57° S 23:41:15 84° E 23:47:39 10° N
Cosmos 1452 Rocket 4.4 23:40:31 10° NW 23:45:18 36° W 23:45:56 35° WSW
CZ-2C R/B 3.3 23:43:59 10° NNE 23:49:10 42° E 23:49:10 42° E
Cosmos 2239 Rocket 4.4 23:45:31 10° N 23:51:41 71° E 23:52:39 60° SE
Cosmos 1758 Rocket 4.1 23:53:34 51° NE 23:53:34 51° NE 23:57:02 10° NNE
Cosmos 1842 4.2 23:54:24 45° NW 23:54:24 45° NW 23:57:38 10° N
H-2A R/B 4.0 23:55:51 21° W 23:56:10 21° W 23:59:39 10° NW
